Location: Unspecified
(0.0000°N, 0.0000°E)
Time: 18:39:44
(UTC+02:00)

Delta 168 - Visible Passes

Search period start: 02 September 2014 00:00
Search period end: 12 September 2014 00:00
Orbit: 395 x 2118 km, 25.3° (Epoch: 31 August)

Date Brightness Start Highest point End Pass type
(mag) Time Alt. Az. Time Alt. Az. Time Alt. Az.
02 Sep 5.4 06:45:05 10° NNW 06:45:10 10° NNW 06:45:35 10° NNW visible
02 Sep 7.0 20:32:33 10° SW 20:41:01 21° S 20:50:06 10° SE visible
02 Sep 6.8 22:35:16 10° SW 22:43:36 20° S 22:43:36 20° S visible
03 Sep 7.0 20:30:31 10° SW 20:38:36 20° S 20:47:18 10° SE visible
03 Sep 6.8 22:32:28 10° SW 22:40:56 22° S 22:40:56 22° S visible
04 Sep 7.0 20:28:24 10° SW 20:36:11 19° S 20:44:36 10° SE visible
04 Sep 6.7 22:29:35 10° SW 22:38:16 23° S 22:38:16 23° S visible
05 Sep 7.0 20:26:13 10° SW 20:33:46 19° S 20:41:59 10° SE visible
05 Sep 6.7 22:26:37 10° SW 22:35:35 25° S 22:35:35 25° S visible
06 Sep 6.9 20:23:55 10° SW 20:31:21 19° S 20:39:28 10° SE visible
06 Sep 6.6 22:23:36 10° SW 22:32:55 27° S 22:32:55 27° S visible
07 Sep 7.5 00:23:05 10° SW 00:23:29 11° SW 00:23:29 11° SW visible
07 Sep 6.9 20:21:31 10° SSW 20:28:54 19° S 20:37:03 10° SE visible
07 Sep 6.4 22:20:33 10° SW 22:30:15 30° S 22:30:15 30° S visible
08 Sep 7.4 00:19:52 10° SW 00:20:49 13° SW 00:20:49 13° SW visible
08 Sep 6.8 20:18:59 10° SSW 20:26:25 19° SSE 20:34:43 10° SE visible
08 Sep 6.3 22:17:29 10° SW 22:27:36 33° SSE 22:27:36 33° SSE visible
09 Sep 7.4 00:16:41 10° SW 00:18:11 15° SW 00:18:11 15° SW visible
09 Sep 6.8 20:16:21 10° SSW 20:23:53 20° SSE 20:32:25 10° SE visible
09 Sep 6.2 22:14:25 10° SW 22:25:00 37° SSE 22:25:00 37° SSE visible
10 Sep 7.3 00:13:33 10° WSW 00:15:34 17° SW 00:15:34 17° SW visible
10 Sep 6.7 20:13:37 10° SSW 20:21:18 21° SSE 20:30:07 10° ESE visible
10 Sep 6.0 22:11:20 10° SW 22:22:25 42° SSE 22:22:25 42° SSE visible
11 Sep 7.2 00:10:27 10° WSW 00:12:59 19° WSW 00:12:59 19° WSW visible
11 Sep 6.6 20:10:49 10° SSW 20:18:39 23° SSE 20:27:49 10° ESE visible
11 Sep 5.8 22:08:17 10° SW 22:19:51 47° SSE 22:19:52 47° SSE visible
